This is the latest recevied weather packets stored in our database for station/object KG5MMT-15. If no packets are shown the sender has not sent any weather packets the latest 10 day(s).
| Time | Temp. | Humidity | Pressure | Rain* | Wind** | Luminosity | Snow |
|---|---|---|---|---|---|---|---|
| 1787878381 | 20° C | 65% | 0 hPa | 0 mm | - | - | - |
| 1787878081 | 20° C | 59% | 0 hPa | 0 mm | - | - | - |
| 1787877781 | 20° C | 63% | 0 hPa | 0 mm | - | - | - |
| 1787877481 | 19.44° C | 65% | 0 hPa | 0 mm | - | - | - |
| 1787877181 | 19.44° C | 67% | 0 hPa | 0 mm | - | - | - |
| 1787876881 | 19.44° C | 69% | 0 hPa | 0 mm | - | - | - |
| 1787876581 | 19.44° C | 69% | 0 hPa | 0 mm | - | - | - |
| 1787876281 | 19.44° C | 68% | 0 hPa | 0 mm | - | - | - |
| 1787875981 | 18.89° C | 68% | 0 hPa | 0 mm | - | - | - |
| 1787875681 | 18.33° C | 72% | 0 hPa | 0 mm | - | - | - |
| 1787875381 | 18.33° C | 74% | 0 hPa | 0 mm | - | - | - |
| 1787875081 | 18.33° C | 76% | 0 hPa | 0 mm | - | - | - |
| 1787874781 | 18.33° C | 75% | 0 hPa | 0 mm | - | - | - |
| 1787874481 | 18.33° C | 71% | 0 hPa | 0 mm | - | - | - |
| 1787874181 | 18.33° C | 72% | 0 hPa | 0 mm | - | - | - |
| 1787873881 | 17.78° C | 74% | 0 hPa | 0 mm | - | - | - |
| 1787873581 | 17.78° C | 82% | 0 hPa | 0 mm | - | - | - |
| 1787873281 | 18.33° C | 82% | 0 hPa | 0 mm | - | - | - |
| 1787872981 | 18.33° C | 79% | 0 hPa | 0.25 mm | - | - | - |
| 1787872681 | 18.33° C | 80% | 0 hPa | 0.25 mm | - | - | - |
| 1787872381 | 18.33° C | 77% | 0 hPa | 0.25 mm | - | - | - |
| 1787872081 | 17.78° C | 77% | 0 hPa | 0.25 mm | - | - | - |
| 1787871781 | 17.78° C | 85% | 0 hPa | 0.51 mm | - | - | - |
| 1787871481 | 17.78° C | 85% | 0 hPa | 1.27 mm | - | - | - |
| 1787871181 | 17.78° C | 85% | 0 hPa | 1.27 mm | - | - | - |
* Rain latest hour (hover to see other rain measurements)
** Current wind speed in m/s (hover to see current wind gust speed)